Location: Chateh
(58.6667°N, 118.6000°W)
Time: 10:01:16
(UTC+00:00)

O/OREOS (USA 219) - Pass Details

Date: 15 December 2023
Orbit: 621 x 646 km, 72.0° (Epoch: 22 May)

Event Time Altitude Azimuth Distance (km) Brightness Sun altitude
Exits shadow 11:41:37 16° 49° (NE) 1,649 ? -36.2°
Drops below altitude 10° 11:43:12 10° 67° (ENE) 2,018 ? -36.0°
Sets 11:46:03 0° 85° (E) 2,928 ? -35.6°
